| time (UTC) | temp F | wind direction | speed MPH | gust MPH | rain 1hr in | rain 24hr in | rain mn in | humidity % | barometer mb |
| 20260906173103 | 95 | 290 | 3.0 | 8.0 | 0.00 | 0.00 | 0.00 | 61 | 1010.4 |
| 20260906171604 | 95 | 288 | 2.0 | 8.0 | 0.00 | 0.00 | 0.00 | 64 | 1010.6 |
| 20260906170106 | 94 | 270 | 3.0 | 9.0 | 0.00 | 0.00 | 0.00 | 65 | 1010.8 |
| 20260906164609 | 94 | 254 | 3.0 | 8.0 | 0.00 | 0.00 | 0.00 | 66 | 1010.8 |
| 20260906163101 | 93 | 265 | 3.0 | 10.0 | 0.00 | 0.00 | 0.00 | 69 | 1011.0 |
| 20260906161604 | 94 | 346 | 2.0 | 10.0 | 0.00 | 0.00 | 0.00 | 69 | 1011.1 |
| 20260906160104 | 92 | 330 | 3.0 | 10.0 | 0.00 | 0.00 | 0.00 | 71 | 1011.3 |
| 20260906154606 | 92 | 290 | 2.0 | 9.0 | 0.00 | 0.00 | 0.00 | 71 | 1011.4 |
| 20260906153104 | 91 | 209 | 2.0 | 9.0 | 0.00 | 0.00 | 0.00 | 73 | 1011.7 |
| 20260906151603 | 91 | 198 | 2.0 | 8.0 | 0.00 | 0.00 | 0.00 | 75 | 1011.5 |
| 20260906150114 | 90 | 0 | 2.0 | 8.0 | 0.00 | 0.00 | 0.00 | 76 | 1011.5 |
| 20260906144605 | 88 | 236 | 3.0 | 8.0 | 0.00 | 0.00 | 0.00 | 78 | 1011.5 |
| 20260906143112 | 88 | 285 | 3.0 | 8.0 | 0.00 | 0.00 | 0.00 | 80 | 1011.3 |
| 20260906141605 | 85 | 198 | 1.0 | 6.0 | 0.00 | 0.00 | 0.00 | 85 | 1011.2 |
| 20260906140107 | 84 | 269 | 2.0 | 9.0 | 0.00 | 0.00 | 0.00 | 86 | 1011.4 |
| 20260906134606 | 84 | 313 | 2.0 | 8.0 | 0.00 | 0.00 | 0.00 | 87 | 1011.3 |
| 20260906133112 | 82 | 294 | 6.0 | 10.0 | 0.00 | 0.00 | 0.00 | 90 | 1011.5 |
| 20260906131605 | 81 | 301 | 3.0 | 7.0 | 0.00 | 0.00 | 0.00 | 91 | 1011.5 |
| 20260906124557 | 79 | 293 | 2.0 | 6.0 | 0.00 | 0.00 | 0.00 | 95 | 1011.3 |
| 20260906123104 | 78 | 281 | 3.0 | 7.0 | 0.00 | 0.00 | 0.00 | 96 | 1011.3 |
| 20260906121558 | 78 | 280 | 1.0 | 4.0 | 0.00 | 0.00 | 0.00 | 96 | 1011.1 |
| 20260906120142 | 78 | 256 | 0.0 | 3.0 | 0.00 | 0.00 | 0.00 | 96 | 1011.1 |
| 20260906114612 | 78 | 291 | 1.0 | 2.0 | 0.00 | 0.00 | 0.00 | 96 | 1011.1 |
| 20260906113102 | 78 | 0 | 0.0 | 1.0 | 0.00 | 0.00 | 0.00 | 95 | 1011.4 |
| 20260906111617 | 78 | 296 | 1.0 | 3.0 | 0.00 | 0.00 | 0.00 | 95 | 1011.2 |
| 20260906104558 | 79 | 272 | 1.0 | 6.0 | 0.00 | 0.00 | 0.00 | 95 | 1010.4 |
| 20260906103056 | 79 | 269 | 2.0 | 4.0 | 0.00 | 0.00 | 0.00 | 95 | 1010.3 |
| 20260906101559 | 79 | 271 | 2.0 | 6.0 | 0.00 | 0.00 | 0.00 | 95 | 1010.2 |
| 20260906100100 | 79 | 228 | 2.0 | 6.0 | 0.00 | 0.00 | 0.00 | 95 | 1010.0 |
| 20260906094601 | 79 | 272 | 1.0 | 7.0 | 0.00 | 0.00 | 0.00 | 95 | 1010.1 |
| 20260906093100 | 79 | 284 | 2.0 | 6.0 | 0.00 | 0.00 | 0.00 | 95 | 1010.0 |
| 20260906091557 | 79 | 285 | 2.0 | 6.0 | 0.00 | 0.00 | 0.00 | 95 | 1010.0 |
| 20260906090109 | 79 | 261 | 1.0 | 4.0 | 0.00 | 0.00 | 0.00 | 95 | 1010.0 |
| 20260906084604 | 79 | 0 | 1.0 | 5.0 | 0.00 | 0.00 | 0.00 | 95 | 1010.1 |
| 20260906083057 | 79 | 0 | 1.0 | 4.0 | 0.00 | 0.00 | 0.00 | 95 | 1010.1 |
| 20260906081559 | 79 | 0 | 1.0 | 3.0 | 0.00 | 0.00 | 0.00 | 95 | 1009.7 |
| 20260906080058 | 79 | 267 | 0.0 | 4.0 | 0.00 | 0.00 | 0.00 | 96 | 1009.9 |
| 20260906074556 | 79 | 244 | 1.0 | 3.0 | 0.00 | 0.00 | 0.00 | 96 | 1009.9 |
| 20260906073055 | 79 | 272 | 1.0 | 4.0 | 0.00 | 0.00 | 0.00 | 96 | 1010.1 |
| 20260906071603 | 79 | 270 | 1.0 | 3.0 | 0.00 | 0.00 | 0.00 | 96 | 1010.0 |
| 20260906070057 | 79 | 213 | 1.0 | 3.0 | 0.00 | 0.00 | 0.00 | 96 | 1010.0 |
| 20260906064559 | 79 | 253 | 1.0 | 4.0 | 0.00 | 0.00 | 0.00 | 96 | 1009.8 |
| 20260906063100 | 79 | 265 | 1.0 | 3.0 | 0.00 | 0.00 | 0.00 | 96 | 1010.0 |
| 20260906061601 | 79 | 228 | 0.0 | 3.0 | 0.00 | 0.00 | 0.00 | 96 | 1010.2 |
| 20260906060058 | 79 | 292 | 1.0 | 3.0 | 0.00 | 0.00 | 0.00 | 96 | 1010.4 |
| 20260906054632 | 79 | 0 | 0.0 | 3.0 | 0.00 | 0.00 | 0.00 | 96 | 1010.5 |
| 20260906053059 | 79 | 240 | 2.0 | 4.0 | 0.00 | 0.00 | 0.00 | 96 | 1010.6 |
| 20260906051556 | 80 | 265 | 1.0 | 7.0 | 0.00 | 0.00 | 0.00 | 96 | 1010.4 |
| 20260906050104 | 80 | 259 | 3.0 | 5.0 | 0.00 | 0.00 | 0.00 | 96 | 1010.4 |
| 20260906044601 | 80 | 229 | 2.0 | 6.0 | 0.00 | 0.00 | 0.00 | 96 | 1010.7 |
| 20260906043102 | 80 | 223 | 2.0 | 7.0 | 0.00 | 0.00 | 0.00 | 96 | 1010.6 |
| 20260906041556 | 80 | 232 | 2.0 | 4.0 | 0.00 | 0.00 | 0.00 | 96 | 1010.8 |
| 20260906040116 | 80 | 229 | 1.0 | 5.0 | 0.00 | 0.00 | 0.00 | 95 | 1011.0 |
| 20260906034601 | 80 | 230 | 1.0 | 4.0 | 0.00 | 0.00 | 0.00 | 95 | 1011.1 |
| 20260906033117 | 80 | 255 | 1.0 | 7.0 | 0.00 | 0.00 | 0.00 | 95 | 1011.2 |
| 20260906031612 | 80 | 254 | 2.0 | 5.0 | 0.00 | 0.00 | 0.00 | 95 | 1011.2 |
| 20260906024607 | 80 | 0 | 0.0 | 7.0 | 0.00 | 0.00 | 0.00 | 94 | 1011.4 |
| 20260906023101 | 80 | 209 | 1.0 | 7.0 | 0.00 | 0.00 | 0.00 | 93 | 1011.3 |
| 20260906021607 | 80 | 0 | 2.0 | 7.0 | 0.00 | 0.00 | 0.00 | 92 | 1011.3 |
| 20260906014558 | 80 | 279 | 1.0 | 4.0 | 0.00 | 0.00 | 0.00 | 89 | 1010.9 |
| 20260906013106 | 81 | 225 | 0.0 | 5.0 | 0.00 | 0.00 | 0.00 | 89 | 1010.3 |
| 20260906011607 | 81 | 219 | 0.0 | 2.0 | 0.00 | 0.00 | 0.00 | 88 | 1010.5 |
| 20260906010105 | 81 | 0 | 0.0 | 3.0 | 0.00 | 0.00 | 0.00 | 88 | 1010.5 |
| 20260906004604 | 82 | 187 | 0.0 | 2.0 | 0.00 | 0.00 | 0.00 | 88 | 1010.3 |
| 20260906003056 | 82 | 0 | 0.0 | 3.0 | 0.00 | 0.00 | 0.00 | 87 | 1010.1 |
| 20260906001602 | 82 | 0 | 0.0 | 1.0 | 0.00 | 0.00 | 0.00 | 87 | 1009.9 |
| 20260906000107 | 83 | 0 | 0.0 | 2.0 | 0.00 | 0.00 | 0.00 | 86 | 1009.7 |
| 20260905234605 | 83 | 217 | 0.0 | 1.0 | 0.00 | 0.00 | 0.00 | 85 | 1009.8 |
| 20260905233105 | 84 | 0 | 0.0 | 2.0 | 0.00 | 0.00 | 0.00 | 84 | 1010.2 |
| 20260905231602 | 84 | 217 | 1.0 | 4.0 | 0.00 | 0.00 | 0.00 | 84 | 1010.1 |
| 20260905230100 | 84 | 0 | 0.0 | 2.0 | 0.00 | 0.00 | 0.00 | 85 | 1010.0 |
| 20260905224613 | 84 | 165 | 0.0 | 4.0 | 0.00 | 0.00 | 0.00 | 84 | 1010.0 |
| 20260905223100 | 84 | 0 | 1.0 | 5.0 | 0.00 | 0.00 | 0.00 | 85 | 1010.3 |
| 20260905221601 | 84 | 132 | 1.0 | 5.0 | 0.00 | 0.00 | 0.00 | 85 | 1010.7 |
| 20260905220059 | 84 | 178 | 0.0 | 4.0 | 0.00 | 0.00 | 0.00 | 84 | 1010.7 |
| 20260905214600 | 85 | 0 | 1.0 | 3.0 | 0.00 | 0.00 | 0.00 | 83 | 1010.7 |
| 20260905213108 | 85 | 91 | 0.0 | 5.0 | 0.00 | 0.00 | 0.00 | 80 | 1010.8 |
| 20260905211611 | 85 | 211 | 1.0 | 6.0 | 0.00 | 0.00 | 0.00 | 80 | 1010.7 |
| 20260905210104 | 85 | 0 | 0.0 | 4.0 | 0.00 | 0.00 | 0.00 | 80 | 1010.8 |
| 20260905204611 | 86 | 47 | 1.0 | 8.0 | 0.00 | 0.00 | 0.00 | 78 | 1010.8 |
| 20260905203119 | 87 | 0 | 1.0 | 4.0 | 0.00 | 0.00 | 0.00 | 81 | 1010.7 |
| 20260905201605 | 89 | 75 | 1.0 | 7.0 | 0.00 | 0.00 | 0.00 | 78 | 1010.7 |
| 20260905200120 | 91 | 269 | 2.0 | 7.0 | 0.00 | 0.00 | 0.00 | 71 | 1010.7 |
| 20260905194607 | 93 | 233 | 2.0 | 6.0 | 0.00 | 0.00 | 0.00 | 69 | 1010.8 |
| 20260905193103 | 93 | 281 | 2.0 | 9.0 | 0.00 | 0.00 | 0.00 | 68 | 1010.8 |
| 20260905191559 | 93 | 250 | 4.0 | 12.0 | 0.00 | 0.00 | 0.00 | 70 | 1011.2 |
| 20260905190106 | 92 | 288 | 5.0 | 11.0 | 0.00 | 0.00 | 0.00 | 70 | 1011.2 |
| 20260905184616 | 89 | 257 | 1.0 | 7.0 | 0.00 | 0.00 | 0.00 | 77 | 1011.2 |
| 20260905183058 | 88 | 0 | 1.0 | 4.0 | 0.00 | 0.00 | 0.00 | 84 | 1011.1 |
| 20260905181558 | 88 | 121 | 2.0 | 6.0 | 0.00 | 0.00 | 0.00 | 83 | 1011.6 |
| 20260905180106 | 88 | 0 | 1.0 | 7.0 | 0.00 | 0.00 | 0.00 | 83 | 1011.6 |
| 20260905174558 | 89 | 84 | 1.0 | 4.0 | 0.00 | 0.00 | 0.00 | 81 | 1011.8 |